User: anonymous   Login
Location: Unspecified
(0.0000°N, 0.0000°E)
Time: 16:38:41
(UTC+00:00)
Language:

deb r/b Ablestar - Orbit

View from above orbital plane
View from above orbital plane
View from above satellite
View from above satellite

Ground track
Ground track

The orbit data is extracted from the following two-line orbital elements,

1   335U 61015DM  17147.74257026 -.00000219 +00000-0 -68411-4 0  9995
2   335 066.8423 291.3275 0032618 095.6471 264.8343 14.16759501858182
Epoch (UTC): 27 May 2017 17:49:18
Eccentricity: 0.0032618
inclination: 66.8423°
perigee height: 813 km
apogee height: 860 km
right ascension of ascending node: 291.3275°
argument of perigee: 95.6471°
revolutions per day: 14.16759501
mean anomaly at epoch: 264.8343°
orbit number at epoch: 85818

The dashed part of the orbit path shows where the satellite is in the earth's shadow,  

DLR